Location: Oshawa
(43.9000°N, 78.8670°W)
Time: 14:44:44
(UTC-04:00)

PAYLOAD A - Visible Passes

Search period start: 24 October 2014 00:00
Search period end: 02 November 2014 23:00
Orbit: 692 x 833 km, 98.2° (Epoch: 23 October)

Date Brightness Start Highest point End Pass type
(mag) Time Alt. Az. Time Alt. Az. Time Alt. Az.
24 Oct 4.4 19:11:02 10° SE 19:15:54 40° ENE 19:20:36 10° N visible
24 Oct 6.0 20:50:32 10° SSW 20:54:56 27° W 20:59:14 10° NW visible
25 Oct 4.6 20:12:06 10° S 20:17:15 58° W 20:22:15 10° NNW visible
26 Oct 3.9 19:34:36 10° SSE 19:39:45 66° ENE 19:44:45 10° N visible
26 Oct 6.7 21:15:57 10° SW 21:19:06 16° W 21:22:14 10° NW visible
27 Oct 4.7 18:57:57 10° SE 19:02:26 31° ENE 19:06:47 10° N visible
27 Oct 5.5 20:36:35 10° SSW 20:41:18 35° W 20:45:54 10° NNW visible
28 Oct 4.1 19:58:30 10° S 20:03:41 77° WSW 20:08:42 10° NNW visible
29 Oct 4.1 19:21:18 10° SE 19:26:15 49° ENE 19:31:02 10° N visible
29 Oct 6.3 21:01:35 10° SW 21:05:25 21° W 21:09:11 10° NW visible
30 Oct 5.0 18:44:59 10° ESE 18:48:59 24° ENE 18:52:52 10° NNE visible
30 Oct 5.0 20:22:46 10° S 20:27:41 45° W 20:32:28 10° NNW visible
31 Oct 3.8 19:45:00 10° SSE 19:50:08 82° ENE 19:55:05 10° NNW visible
31 Oct 7.0 21:27:38 10° WSW 21:29:38 12° W 21:31:37 10° WNW visible
01 Nov 4.4 19:08:06 10° SE 19:12:44 37° ENE 19:17:15 10° N visible
01 Nov 5.9 20:47:28 10° SSW 20:51:45 27° W 20:55:57 10° NW visible
02 Nov 5.3 17:32:11 10° ESE 17:35:32 18° ENE 17:38:49 10° NNE visible
02 Nov 4.4 19:09:04 10° S 19:14:05 60° W 19:18:56 10° NNW visible
